This demonstration page uses our WeatherBlox Daily Observations layout. Learn more.

Left ArrowRight Arrow

Hourly Observations for February 16, 2019

Temp ( °F °C ) Dew Point ( °F °C ) Humidity (%) Winds ( mph kmh ) Pressure ( in mb ) Visibility ( mi km ) Precip ( " mm )
12:15 am 00:15 Clear 23 -5 21 -6 93 93 N 10 17 30.06 1018 10 16 N/A
12:16 am 00:16 Clear 23 -5 21 -6 93 93 N 10 17 30.06 1018 10 16 N/A
12:35 am 00:35 Clear 23 -5 21 -6 93 93 N 10 17 30.07 1018 10 16 N/A
12:55 am 00:55 Partly Cloudy 23 -5 21 -6 93 93 N 8 13 30.07 1018 10 16 N/A
1:15 am 01:15 Partly Cloudy 23 -5 21 -6 93 93 N 10 17 30.07 1018 10 16 N/A
1:16 am 01:16 Partly Cloudy 23 -5 21 -6 93 93 N 12 19 30.07 1018 10 16 N/A
1:35 am 01:35 Partly Cloudy 23 -5 21 -6 93 93 N 9 15 30.07 1018 10 16 N/A
1:55 am 01:55 Mostly Cloudy 23 -5 21 -6 93 93 N 12 19 30.07 1018 10 16 N/A
2:15 am 02:15 Partly Cloudy 21 -6 21 -6 100 100 N 10 17 30.08 1019 10 16 N/A
2:16 am 02:16 Partly Cloudy 21 -6 21 -6 100 100 N 9 15 30.08 1019 10 16 N/A
2:35 am 02:35 Mostly Cloudy 23 -5 21 -6 93 93 N 9 15 30.07 1018 10 16 N/A
2:55 am 02:55 Cloudy 23 -5 21 -6 93 93 N 10 17 30.07 1018 10 16 N/A
3:15 am 03:15 Cloudy 23 -5 21 -6 93 93 NNE 15 24 30.07 1018 10 16 N/A
3:16 am 03:16 Cloudy 23 -5 21 -6 93 93 NNE 15 24 30.07 1018 10 16 N/A
3:35 am 03:35 Cloudy 23 -5 21 -6 93 93 N 12 19 30.07 1018 10 16 N/A
3:55 am 03:55 Cloudy 23 -5 21 -6 93 93 NNE 13 20 30.07 1018 10 16 N/A
3:56 am 03:56 Cloudy 23 -5 21 -6 93 93 NNE 14 22 30.08 1019 10 16 N/A
4:15 am 04:15 Cloudy 23 -5 21 -6 93 93 NNE 14 22 30.08 1019 10 16 N/A
4:16 am 04:16 Cloudy 23 -5 21 -6 93 93 NNE 15 24 30.08 1019 10 16 N/A
4:35 am 04:35 Cloudy 23 -5 21 -6 93 93 NNE 13 20 30.08 1019 10 16 N/A
4:55 am 04:55 Cloudy 23 -5 21 -6 93 93 N 13 20 30.08 1019 10 16 N/A
4:56 am 04:56 Cloudy 23 -5 21 -6 93 93 N 13 20 30.08 1019 10 16 N/A
5:15 am 05:15 Cloudy 21 -6 21 -6 100 100 NNE 15 24 30.09 1019 10 16 N/A
5:16 am 05:16 Cloudy 21 -6 21 -6 100 100 NNE 14 22 30.09 1019 10 16 N/A
5:35 am 05:35 Cloudy 21 -6 19 -7 93 93 NNE 14 22 30.09 1019 10 16 N/A
5:55 am 05:55 Cloudy 21 -6 19 -7 93 93 NE 14 22 30.10 1019 10 16 N/A
5:56 am 05:56 Cloudy 21 -6 19 -7 93 93 NE 14 22 30.10 1019 10 16 N/A
6:15 am 06:15 Mostly Cloudy 21 -6 19 -7 93 93 NNE 12 19 30.11 1020 10 16 N/A
6:16 am 06:16 Mostly Cloudy 21 -6 19 -7 93 93 NNE 12 19 30.11 1020 10 16 N/A
6:35 am 06:35 Partly Cloudy 19 -7 19 -7 100 100 NNE 9 15 30.11 1020 10 16 N/A
6:55 am 06:55 Clear 19 -7 19 -7 100 100 NNE 9 15 30.12 1020 10 16 N/A
6:56 am 06:56 Clear 19 -7 19 -7 100 100 NNE 9 15 30.12 1020 10 16 N/A
7:15 am 07:15 Clear 19 -7 19 -7 100 100 NNE 12 19 30.11 1020 10 16 N/A
7:35 am 07:35 Sunny 19 -7 19 -7 100 100 NNE 7 11 30.13 1020 10 16 N/A
7:55 am 07:55 Sunny 19 -7 19 -7 100 100 NNE 7 11 30.14 1021 10 16 N/A
7:56 am 07:56 Sunny 19 -7 19 -7 100 100 NE 7 11 30.14 1021 10 16 N/A
8:15 am 08:15 Sunny 21 -6 19 -7 93 93 NE 10 17 30.12 1020 10 16 N/A
8:35 am 08:35 Sunny 21 -6 19 -7 93 93 NE 13 20 30.11 1020 10 16 N/A
8:55 am 08:55 Sunny 23 -5 21 -6 93 93 NE 12 19 30.12 1020 10 16 N/A
8:56 am 08:56 Sunny 23 -5 19 -7 86 86 NE 12 19 30.13 1020 10 16 N/A
9:15 am 09:15 Sunny 23 -5 21 -6 93 93 NE 12 19 30.13 1020 10 16 N/A
9:35 am 09:35 Partly Cloudy 25 -4 21 -6 86 86 NE 14 22 30.13 1020 10 16 N/A
9:55 am 09:55 Mostly Cloudy 25 -4 21 -6 86 86 NE 14 22 30.12 1020 10 16 N/A
9:56 am 09:56 Mostly Cloudy 25 -4 21 -6 86 86 ENE 12 19 30.13 1020 10 16 N/A
10:15 am 10:15 Cloudy 27 -3 21 -6 80 80 NE 9 15 30.13 1020 10 16 N/A
10:35 am 10:35 Cloudy 25 -4 21 -6 86 86 NNE 10 17 30.13 1020 10 16 N/A
10:55 am 10:55 Partly Cloudy 25 -4 21 -6 86 86 NE 9 15 30.14 1021 10 16 N/A
10:56 am 10:56 Partly Cloudy 25 -4 21 -6 86 86 NE 8 13 30.14 1021 10 16 N/A
11:15 am 11:15 Mostly Cloudy 25 -4 21 -6 86 86 NNE 10 17 30.14 1021 10 16 N/A
11:35 am 11:35 Cloudy 25 -4 21 -6 86 86 NE 8 13 30.14 1021 10 16 N/A
11:36 am 11:36 Cloudy 27 -3 21 -6 80 80 ENE 9 15 30.14 1021 10 16 N/A
11:55 am 11:55 Mostly Cloudy 27 -3 21 -6 80 80 NNE 7 11 30.14 1021 10 16 N/A
11:56 am 11:56 Mostly Cloudy 27 -3 21 -6 80 80 NE 6 9 30.14 1021 10 16 N/A
12:15 pm 12:15 Cloudy 27 -3 21 -6 80 80 NNE 7 11 30.15 1021 10 16 N/A
12:35 pm 12:35 Cloudy 27 -3 21 -6 80 80 NNE 8 13 30.14 1021 10 16 N/A
12:36 pm 12:36 Cloudy 27 -3 21 -6 80 80 NNE 9 15 30.14 1021 10 16 N/A
12:55 pm 12:55 Mostly Cloudy 27 -3 23 -5 86 86 NE 7 11 30.12 1020 10 16 N/A
12:56 pm 12:56 Mostly Cloudy 27 -3 21 -6 80 80 NE 9 15 30.12 1020 10 16 N/A
1:15 pm 13:15 Mostly Cloudy 28 -2 23 -5 80 80 NNE 8 13 30.10 1019 10 16 N/A
1:35 pm 13:35 Mostly Cloudy 28 -2 23 -5 80 80 NE 12 19 30.09 1019 10 16 N/A
1:36 pm 13:36 Mostly Cloudy 28 -2 23 -5 80 80 NE 12 19 30.09 1019 10 16 N/A
1:55 pm 13:55 Mostly Cloudy 30 -1 23 -5 75 75 NE 8 13 30.09 1019 10 16 N/A
1:56 pm 13:56 Mostly Cloudy 30 -1 25 -4 80 80 ENE 10 17 30.09 1019 10 16 N/A
2:15 pm 14:15 Mostly Cloudy 28 -2 23 -5 80 80 NE 8 13 30.08 1019 10 16 N/A
2:35 pm 14:35 Partly Cloudy 30 -1 25 -4 80 80 ENE 9 15 30.08 1019 10 16 N/A
2:36 pm 14:36 Partly Cloudy 30 -1 25 -4 80 80 NE 9 15 30.08 1019 10 16 N/A
2:55 pm 14:55 Partly Cloudy 30 -1 25 -4 80 80 ENE 9 15 30.08 1019 10 16 N/A
2:56 pm 14:56 Partly Cloudy 30 -1 25 -4 80 80 ENE 9 15 30.08 1019 10 16 N/A
3:15 pm 15:15 Partly Cloudy 30 -1 25 -4 80 80 ENE 12 19 30.07 1018 10 16 N/A
3:35 pm 15:35 Partly Cloudy 30 -1 25 -4 80 80 NE 12 19 30.06 1018 10 16 N/A
3:36 pm 15:36 Partly Cloudy 30 -1 25 -4 80 80 NE 10 17 30.06 1018 10 16 N/A
3:55 pm 15:55 Partly Cloudy 30 -1 25 -4 80 80 ENE 12 19 30.05 1018 10 16 N/A
4:15 pm 16:15 Mostly Cloudy 28 -2 25 -4 86 86 NE 14 22 30.05 1018 10 16 N/A
4:35 pm 16:35 Cloudy 28 -2 25 -4 86 86 ENE 14 22 30.04 1017 10 16 N/A
4:36 pm 16:36 Cloudy 28 -2 25 -4 86 86 ENE 14 22 30.05 1018 10 16 N/A
4:55 pm 16:55 Cloudy 28 -2 25 -4 86 86 NE 12 19 30.06 1018 10 16 N/A
5:15 pm 17:15 Cloudy 27 -3 25 -4 93 93 NE 13 20 30.07 1018 10 16 N/A
5:35 pm 17:35 Cloudy 27 -3 25 -4 93 93 ENE 12 19 30.07 1018 10 16 N/A
5:36 pm 17:36 Cloudy 27 -3 25 -4 93 93 ENE 13 20 30.07 1018 10 16 N/A
5:55 pm 17:55 Cloudy 27 -3 23 -5 86 86 NE 12 19 30.07 1018 10 16 N/A
6:15 pm 18:15 Cloudy 27 -3 23 -5 86 86 NE 10 17 30.06 1018 10 16 N/A
6:35 pm 18:35 Cloudy 25 -4 23 -5 93 93 E 10 17 30.08 1019 10 16 N/A
6:36 pm 18:36 Cloudy 27 -3 23 -5 86 86 E 10 17 30.08 1018 10 16 N/A
6:55 pm 18:55 Cloudy 25 -4 23 -5 93 93 ENE 12 19 30.08 1019 10 16 N/A
7:15 pm 19:15 Cloudy 27 -3 23 -5 86 86 E 7 11 30.09 1019 10 16 N/A
7:16 pm 19:16 Cloudy 25 -4 23 -5 93 93 ENE 7 11 30.09 1019 10 16 N/A
7:35 pm 19:35 Cloudy 25 -4 25 -4 100 100 ENE 12 19 30.09 1019 10 16 N/A
7:36 pm 19:36 Cloudy 25 -4 25 -4 100 100 ENE 10 17 30.09 1019 10 16 N/A
7:55 pm 19:55 Cloudy 25 -4 23 -5 93 93 E 13 20 30.09 1019 10 16 N/A
8:15 pm 20:15 Cloudy 25 -4 23 -5 93 93 E 10 17 30.09 1019 10 16 N/A
8:16 pm 20:16 Cloudy 25 -4 25 -4 100 100 E 9 15 30.09 1019 10 16 N/A
8:35 pm 20:35 Cloudy 25 -4 23 -5 93 93 E 14 22 30.08 1019 10 16 N/A
8:36 pm 20:36 Cloudy 25 -4 23 -5 93 93 E 14 22 30.08 1019 10 16 N/A
8:55 pm 20:55 Cloudy 25 -4 23 -5 93 93 E 16 26 30.06 1018 10 16 N/A
9:15 pm 21:15 Mostly Cloudy 25 -4 23 -5 93 93 E 12 19 30.08 1019 10 16 N/A
9:16 pm 21:16 Mostly Cloudy 25 -4 23 -5 93 93 E 12 19 30.08 1019 10 16 N/A
9:35 pm 21:35 Mostly Cloudy 23 -5 23 -5 100 100 E 10 17 30.08 1019 10 16 N/A
9:36 pm 21:36 Partly Cloudy 23 -5 23 -5 100 100 E 13 20 30.08 1019 10 16 N/A
9:55 pm 21:55 Mostly Cloudy 25 -4 23 -5 93 93 ENE 12 19 30.06 1018 10 16 N/A
10:15 pm 22:15 Cloudy 25 -4 23 -5 93 93 ENE 13 20 30.06 1018 10 16 N/A

Powered by AerisWeather